TimeCDT,TemperatureF,Dew PointF,Humidity,Sea Level PressureIn,VisibilityMPH,Wind Direction,Wind SpeedMPH,Gust SpeedMPH,PrecipitationIn,Events,Conditions,WindDirDegrees,DateUTC
12:15 AM,44.1,36.9,76,29.97,10.0,North,6.9,-,N/A,,Clear,360,2013-05-22 05:15:00
12:35 AM,43.3,36.7,77,29.97,10.0,North,5.8,-,N/A,,Clear,350,2013-05-22 05:35:00
12:55 AM,42.3,36.7,81,29.97,10.0,North,8.1,-,N/A,,Clear,350,2013-05-22 05:55:00
1:15 AM,42.4,36.7,80,29.97,10.0,NNW,3.5,-,N/A,,Clear,340,2013-05-22 06:15:00
1:35 AM,41.0,36.3,83,29.97,10.0,Calm,Calm,-,N/A,,Clear,0,2013-05-22 06:35:00
1:55 AM,41.4,36.9,84,29.98,10.0,SW,8.1,-,N/A,,Clear,230,2013-05-22 06:55:00
2:15 AM,41.4,36.5,83,29.98,10.0,WNW,4.6,-,N/A,,Clear,290,2013-05-22 07:15:00
3:01 AM,39.2,35.6,87,29.98,10.0,WNW,6.9,-,N/A,,Clear,300,2013-05-22 08:01:00
3:21 AM,41.0,35.6,81,29.97,10.0,WNW,6.9,-,N/A,,Clear,290,2013-05-22 08:21:00
3:41 AM,37.4,35.6,93,29.96,10.0,WNW,5.8,-,N/A,,Clear,300,2013-05-22 08:41:00
4:01 AM,37.4,35.6,93,29.96,10.0,WNW,6.9,-,N/A,,Clear,300,2013-05-22 09:01:00
4:21 AM,37.4,35.6,93,29.95,10.0,WNW,6.9,-,N/A,,Clear,300,2013-05-22 09:21:00
4:41 AM,39.2,35.6,87,29.94,10.0,NW,8.1,-,N/A,,Clear,310,2013-05-22 09:41:00
4:55 AM,37.9,34.7,88,29.94,10.0,WNW,10.4,-,N/A,,Clear,290,2013-05-22 09:55:00
5:00 AM,37.4,35.6,93,29.94,10.0,WNW,9.2,-,N/A,,Clear,300,2013-05-22 10:00:00
5:15 AM,37.0,34.7,91,29.94,10.0,NW,6.9,-,N/A,,Clear,310,2013-05-22 10:15:00
5:35 AM,37.9,34.9,89,29.94,10.0,NW,8.1,-,N/A,,Clear,310,2013-05-22 10:35:00
5:55 AM,37.4,34.0,87,29.94,10.0,North,4.6,-,N/A,,Clear,350,2013-05-22 10:55:00
6:15 AM,37.4,34.5,89,29.94,10.0,NW,6.9,-,N/A,,Clear,310,2013-05-22 11:15:00
6:35 AM,37.0,34.3,90,29.94,10.0,NNW,6.9,-,N/A,,Clear,330,2013-05-22 11:35:00
6:55 AM,36.9,34.2,90,29.94,10.0,NW,5.8,-,N/A,,Clear,310,2013-05-22 11:55:00
7:15 AM,38.8,35.8,89,29.95,10.0,West,6.9,-,N/A,,Clear,280,2013-05-22 12:15:00
7:35 AM,40.5,36.7,86,29.95,10.0,Calm,Calm,-,N/A,,Clear,0,2013-05-22 12:35:00
7:55 AM,42.1,37.6,84,29.96,10.0,NW,3.5,-,N/A,,Clear,310,2013-05-22 12:55:00
8:15 AM,44.6,38.5,79,29.97,10.0,NNW,4.6,-,N/A,,Clear,340,2013-05-22 13:15:00
8:35 AM,45.3,39.2,79,29.97,10.0,North,5.8,-,N/A,,Clear,350,2013-05-22 13:35:00
8:55 AM,46.6,39.9,78,29.98,10.0,North,6.9,-,N/A,,Clear,350,2013-05-22 13:55:00
9:15 AM,48.2,40.5,75,29.98,10.0,North,5.8,-,N/A,,Clear,350,2013-05-22 14:15:00
9:35 AM,49.8,41.2,72,29.98,10.0,NNE,4.6,-,N/A,,Clear,30,2013-05-22 14:35:00
9:55 AM,52.5,41.7,67,29.98,10.0,North,4.6,-,N/A,,Clear,360,2013-05-22 14:55:00
10:15 AM,53.6,39.4,59,29.98,10.0,NNW,8.1,-,N/A,,Clear,340,2013-05-22 15:15:00
10:35 AM,55.2,40.3,57,29.98,10.0,North,6.9,-,N/A,,Clear,10,2013-05-22 15:35:00
10:55 AM,56.1,39.4,53,29.98,10.0,North,3.5,-,N/A,,Clear,360,2013-05-22 15:55:00
11:15 AM,57.0,38.3,50,29.98,10.0,North,5.8,-,N/A,,Clear,360,2013-05-22 16:15:00
11:35 AM,58.5,39.9,50,29.98,10.0,Calm,Calm,-,N/A,,Clear,0,2013-05-22 16:35:00
11:55 AM,59.2,38.3,46,29.98,10.0,North,3.5,-,N/A,,Clear,10,2013-05-22 16:55:00
12:15 PM,60.3,38.1,44,29.98,10.0,Calm,Calm,-,N/A,,Clear,0,2013-05-22 17:15:00
12:35 PM,61.9,39.2,43,29.97,10.0,NNE,6.9,-,N/A,,Clear,20,2013-05-22 17:35:00
12:55 PM,62.4,39.0,42,29.97,10.0,ENE,3.5,-,N/A,,Clear,70,2013-05-22 17:55:00
1:15 PM,62.8,38.3,40,29.97,10.0,East,5.8,-,N/A,,Clear,90,2013-05-22 18:15:00
1:35 PM,63.0,37.8,39,29.97,10.0,East,3.5,-,N/A,,Clear,90,2013-05-22 18:35:00
1:55 PM,64.9,38.7,38,29.96,10.0,North,4.6,-,N/A,,Clear,360,2013-05-22 18:55:00
2:15 PM,64.8,37.6,37,29.96,10.0,Calm,Calm,-,N/A,,Clear,0,2013-05-22 19:15:00
2:35 PM,65.7,39.0,38,29.95,10.0,NNE,6.9,-,N/A,,Clear,30,2013-05-22 19:35:00
2:55 PM,66.9,39.7,37,29.95,10.0,NE,10.4,17.3,N/A,,Clear,50,2013-05-22 19:55:00
3:15 PM,67.8,40.1,36,29.95,10.0,ENE,9.2,-,N/A,,Clear,60,2013-05-22 20:15:00
3:35 PM,66.7,39.7,37,29.95,10.0,Calm,Calm,-,N/A,,Clear,0,2013-05-22 20:35:00
3:55 PM,67.5,40.1,37,29.96,10.0,North,5.8,-,N/A,,Clear,360,2013-05-22 20:55:00
4:15 PM,67.8,39.4,35,29.96,10.0,NE,6.9,17.3,N/A,,Clear,40,2013-05-22 21:15:00
4:35 PM,67.8,39.4,35,29.95,10.0,ENE,11.5,18.4,N/A,,Clear,70,2013-05-22 21:35:00
4:55 PM,68.4,39.4,35,29.95,10.0,ENE,11.5,-,N/A,,Clear,70,2013-05-22 21:55:00
5:15 PM,68.0,38.1,33,29.96,10.0,ENE,10.4,-,N/A,,Clear,60,2013-05-22 22:15:00
5:35 PM,68.0,38.7,34,29.96,10.0,East,10.4,19.6,N/A,,Clear,80,2013-05-22 22:35:00
5:55 PM,67.8,38.8,35,29.95,10.0,ENE,16.1,19.6,N/A,,Clear,60,2013-05-22 22:55:00
6:15 PM,66.7,38.7,36,29.96,10.0,ENE,13.8,-,N/A,,Clear,70,2013-05-22 23:15:00
6:35 PM,66.7,38.8,36,29.97,10.0,East,10.4,18.4,N/A,,Clear,80,2013-05-22 23:35:00
6:55 PM,65.8,39.2,38,29.97,10.0,ENE,16.1,-,N/A,,Clear,60,2013-05-22 23:55:00
7:15 PM,64.9,38.8,38,29.97,10.0,ENE,13.8,21.9,N/A,,Clear,60,2013-05-23 00:15:00
7:35 PM,63.9,40.1,42,29.99,10.0,ENE,16.1,-,N/A,,Clear,70,2013-05-23 00:35:00
7:55 PM,61.9,42.1,48,30.00,10.0,ENE,18.4,24.2,N/A,,Clear,60,2013-05-23 00:55:00
8:15 PM,59.9,43.2,54,30.00,10.0,ENE,18.4,-,N/A,,Clear,60,2013-05-23 01:15:00
8:35 PM,57.6,43.9,60,30.02,10.0,ENE,17.3,-,N/A,,Clear,70,2013-05-23 01:35:00
8:55 PM,55.4,43.9,65,30.02,10.0,ENE,18.4,23.0,N/A,,Clear,60,2013-05-23 01:55:00
9:15 PM,53.4,43.9,70,30.03,10.0,ENE,16.1,-,N/A,,Clear,60,2013-05-23 02:15:00
9:35 PM,52.0,43.7,73,30.04,10.0,ENE,16.1,-,N/A,,Clear,60,2013-05-23 02:35:00
9:55 PM,50.5,44.1,78,30.05,10.0,ENE,16.1,-,N/A,,Clear,60,2013-05-23 02:55:00
10:15 PM,49.6,43.7,80,30.05,10.0,ENE,15.0,-,N/A,,Scattered Clouds,60,2013-05-23 03:15:00
10:35 PM,48.6,43.7,83,30.07,10.0,ENE,12.7,-,N/A,,Scattered Clouds,70,2013-05-23 03:35:00
10:55 PM,47.7,43.3,85,30.08,10.0,ENE,12.7,-,N/A,,Scattered Clouds,70,2013-05-23 03:55:00
11:15 PM,47.7,43.9,87,30.07,10.0,ENE,18.4,-,N/A,,Mostly Cloudy,60,2013-05-23 04:15:00
11:35 PM,47.5,43.7,87,30.08,10.0,ENE,15.0,-,N/A,,Overcast,70,2013-05-23 04:35:00
11:55 PM,47.3,43.2,86,30.08,10.0,ENE,16.1,24.2,N/A,,Overcast,70,2013-05-23 04:55:00